Regional Weather Roundup
Issued by NWS Sterling, VA

Home | Current Version | Previous Version | Text Only | Print | Product List | Glossary Off
Versions: 1 2 3 4 5 6 7 8 9 10 11 12 13 14 15 16 17 18 19 20 21 22 23 24 25 26 27

000
ASUS41 KLWX 191511
RWRLWX

REGIONAL WEATHER ROUNDUP
NATIONAL WEATHER SERVICE BALTIMORE MD/WASHINGTON DC
1100 AM EDT TUE SEP 19 2017

Note: "FAIR" indicates few or no clouds below 12,000 feet
with no significant weather and/or obstructions to visibility.
 TC=TEMPERATURE CELSIUS

 * =Non NWS site. Station does not report precipitation (e.g. rain,
    snow, etc.), thunder, or fog.

DCZ001-MDZ009-015-VAZ040>042-051-053>054-191600-
WASHINGTON METRO

CITY           SKY/WX    TMP DP  RH WIND       PRES   REMARKS
WASHINGTON NAT PTSUNNY   77  68  73 N13       30.00F
DULLES         CLOUDY    72  66  81 N12       30.02F
ANDREWS AFB    MOSUNNY   74  66  74 N13       29.98F
FT BELVOIR     CLOUDY    74  65  73 N7        30.00S
QUANTICO       CLOUDY    74  67  78 N8        30.01R
COLLEGE PARK*  CLOUDY    73  66  77 N8        30.00S
LEESBURG*      CLOUDY    73  68  83 N8        30.04S
MANASSAS*      CLOUDY    73  65  75 N10       30.03R
GAITHERSBURG*  CLOUDY    71  66  84 VRB5      30.03F

$$

MDZ006>007-011-014-191600-
BALTIMORE METRO

CITY           SKY/WX    TMP DP  RH WIND       PRES   REMARKS
BWI AIRPORT    PTSUNNY   74  67  78 VRB6      29.99S
MD SCIENCE CTR   N/A     76  67  73 MISG      29.99F
MARTIN STATE   PTSUNNY   79  72  78 N14       29.99F
ANNAPOLIS      CLOUDY    76  71  85 N12       29.97F
FORT MEADE*    CLOUDY    73  64  73 N3        30.02S

$$

MDZ012-015-019>023-191600-
MARYLAND EASTERN SHORE

CITY           SKY/WX    TMP DP  RH WIND       PRES   REMARKS
OCEAN CITY     RAIN      71  69  93 NE21G38   29.86F FOG
SALISBURY      CLOUDY    73  69  87 N15G24    29.88S
CAMBRIDGE*     CLOUDY    75  68  78 N15G22    29.93S
EASTON*        PTSUNNY   77  66  69 N15G21    29.97F

$$

MDZ017>025-191600-
SOUTHERN MARYLAND

CITY           SKY/WX    TMP DP  RH WIND       PRES   REMARKS
PATUXENT RIVER CLOUDY    75  69  81 N18G28    29.94S
ST INIGOES     PTSUNNY   76  68  76 VRB5G16   29.93S
LEONARDTOWN*   CLOUDY    73  64  73 N6G17     29.97S

$$

MDZ003>005-191600-
NORTH CENTRAL MARYLAND

CITY           SKY/WX    TMP DP  RH WIND       PRES   REMARKS
FREDERICK*     CLOUDY    75  64  69 NE9       30.06S
HAGERSTOWN APT CLOUDY    74  64  71 MISG      30.06S
WESTMINSTER*   CLOUDY    72  66  83 N6        30.04S

$$

MDZ501>502-191600-
WESTERN MARYLAND

CITY           SKY/WX    TMP DP  RH WIND       PRES   REMARKS
OAKLAND*       MOSUNNY   63  59  88 SE3       30.10S
CUMBERLAND*    CLOUDY    73  63  68 CALM      30.10S

$$

VAZ025>031-191600-
SHENANDOAH VALLEY

CITY           SKY/WX    TMP DP  RH WIND       PRES   REMARKS
WINCHESTER*    CLOUDY    70  63  78 CALM      30.06F
FRONT ROYAL*   CLOUDY    68  64  88 CALM      30.06S
LURAY*         CLOUDY    72  63  73 NE3       30.06F
NEW MARKET*    MOSUNNY   70  62  74 CALM      30.06F
STAUNTON*      PTSUNNY   69  61  75 NE3       30.09F
WAYNESBORO*    CLOUDY    68  63  85 N5        30.09F

$$

WVZ021-048>050-054>055-191600-
EASTERN WEST VIRGINIA PANHANDLE

CITY           SKY/WX    TMP DP  RH WIND       PRES   REMARKS
MARTINSBURG    CLOUDY    73  63  70 N9        30.05F
PETERSBURG*    MOSUNNY   75  65  72 CALM      30.07S

$$

VAZ036>039-050-191600-
CENTRAL FOOTHILLS

CITY           SKY/WX    TMP DP  RH WIND       PRES   REMARKS
CHARLOTTESVILL SUNNY     77  65  66 VRB3      30.03S
CULPEPER*      SUNNY     74  66  74 N12       30.03F
ORANGE*        MOSUNNY   72  64  78 CALM      30.02F
GORDONSVILLE*  MOSUNNY   74  66  77 NE3       30.02F
WARRENTON*     CLOUDY    76  63  63 N10       30.02F

$$

VAZ055>057-191600-
NORTH AND CENTRAL PIEDMONT

CITY           SKY/WX    TMP DP  RH WIND       PRES   REMARKS
FREDERICKSBRG* CLOUDY    72  66  83 NW8G16    30.00S
STAFFORD*      CLOUDY    71  68  92 NW10      30.05S

$$

NCZ024-NYZ072-PAZ021-071-VAZ022-071-191600-
OTHER REGIONAL OBSERVATIONS

CITY           SKY/WX    TMP DP  RH WIND       PRES   REMARKS
NEW YORK CITY  PTSUNNY   75  64  68 E9G23     30.03F
PHILADELPHIA   PTSUNNY   79  65  62 NE22      29.96F
PITTSBURGH     MOSUNNY   73  64  73 SE7       30.05F
ROANOKE        CLOUDY    72  65  78 VRB5      30.10R
RICHMOND       MOSUNNY   74  65  73 N18       29.98S
RALEIGH        MOSUNNY   75  65  70 N8        30.02S

$$

ANZ530>537-191600-
MARINE OBSERVATIONS

STATION/POSITION TIME  TEMP    WIND        PRES
                       AIR SEA DIR/SP/G
                 (UTC) (F)     (DEG/KT/KT) (MB)
THOMAS PT LIGHT  1500   73 75  360/ 17/ 20   N/A
BALT KEY BRIDGE  1448   73     360/ 11/ 12 1015.2S
COVE POINT       1448   73      10/ 16/ 24 1014.6S
LEWISETTA        1448   75 75   10/ 12/ 17 1013.5F
SOLOMONS ISLAND  1442   74 76  340/ 16/ 19 1013.4F
PINEY POINT      1448           10/ 17/ 20   N/A

$$





USA.gov is the U.S. government's official web portal to all federal, state and local government web resources and services.